This demonstration page uses our WeatherBlox Daily Observations layout. Learn more.

Left ArrowRight Arrow

Hourly Observations for October 19, 2021

Temp ( °F °C ) Dew Point ( °F °C ) Humidity (%) Winds ( mph kmh ) Pressure ( in mb ) Visibility ( mi km ) Precip ( " mm )
12:53 am 00:53 Clear 56 13.3 42 5.6 60 60 S 12 19 29.82 1010 10 16 N/A
1:53 am 01:53 Clear 55 12.8 42 5.6 62 62 S 10 17 29.81 1010 10 16 N/A
2:53 am 02:53 Clear 53 11.7 42 5.6 66 66 S 12 19 29.80 1009 10 16 N/A
3:53 am 03:53 Clear 53 11.7 42 5.6 66 66 S 12 19 29.78 1009 10 16 N/A
4:53 am 04:53 Clear 52 11.1 42 5.6 69 69 S 9 15 29.78 1008 10 16 N/A
5:53 am 05:53 Clear 51 10.6 43 6.1 74 74 S 8 13 29.78 1008 10 16 N/A
6:53 am 06:53 Clear 51 10.6 43 6.1 74 74 S 9 15 29.79 1009 10 16 N/A
7:53 am 07:53 Sunny 51 10.6 43 6.1 74 74 S 9 15 29.79 1009 10 16 N/A
8:53 am 08:53 Sunny 53 11.7 44 6.7 72 72 S 10 17 29.79 1009 10 16 N/A
9:53 am 09:53 Sunny 57 13.9 45 7.2 64 64 S 13 20 29.80 1009 10 16 N/A
10:53 am 10:53 Sunny 61 16.1 46 7.8 58 58 S 15 24 29.80 1009 10 16 N/A
11:53 am 11:53 Sunny 65 18.3 47 8.3 52 52 S 13 20 29.80 1009 10 16 N/A
12:53 pm 12:53 Sunny 68 20 48 8.9 49 49 SSE 16 26 29.77 1008 10 16 N/A
1:53 pm 13:53 Sunny 71 21.7 48 8.9 44 44 SSE 18 30 29.75 1007 10 16 N/A
2:53 pm 14:53 Sunny 73 22.8 49 9.4 43 43 SE 17 28 29.72 1007 10 16 N/A
3:53 pm 15:53 Sunny 75 23.9 49 9.4 40 40 SSE 17 28 29.72 1006 10 16 N/A
4:53 pm 16:53 Sunny 75 23.9 50 10 41 41 SSE 16 26 29.72 1006 10 16 N/A
5:53 pm 17:53 Sunny 73 22.8 51 10.6 46 46 SSE 14 22 29.73 1007 10 16 N/A
6:53 pm 18:53 Clear 70 21.1 52 11.1 53 53 S 7 11 29.76 1008 10 16 N/A
7:53 pm 19:53 Clear 67 19.4 53 11.7 61 61 SSE 10 17 29.77 1008 10 16 N/A
8:53 pm 20:53 Mostly Clear 65 18.3 54 12.2 68 68 SSE 9 15 29.78 1009 10 16 N/A
9:53 pm 21:53 Clear 66 18.9 55 12.8 68 68 SSE 10 17 29.80 1009 10 16 N/A
10:53 pm 22:53 Clear 65 18.3 55 12.8 70 70 SSE 9 15 29.80 1009 10 16 N/A
11:53 pm 23:53 Clear 62 16.7 55 12.8 78 78 SSE 6 9 29.80 1009 10 16 N/A

Powered by AerisWeather